Вернуться в каталог

STARLINK-3798

АктивенСвязьVLEO
NORAD 52371·PAYLOAD·🇺🇸 United States

Запущен Apr 29, 2022 с Cape Canaveral Space Force Station

Loading…

Ближайшие Пролёты (ближайшие 24 часа)

TLE

СвежийSource: CelesTrak SupGP

Эпоха: Sep 15, 2026, 02:45 UTC

1 52371C 22045AS  26258.11506944 -.00028904  00000+0 -92959-3 0  2583
2 52371  53.1604  46.8325 0001173  81.5368 146.1536 15.31712046    17

Отслеживайте STARLINK-3798 в реальном времени с AllMySat

Download on the App Store